Location: Bergheim
(50.9593°N, 6.6400°E)
Time: 10:40:16
(UTC+02:00)

ISS - Pass Details

Date: 19 May 2021
Orbit: 417 x 422 km, 51.6° (Epoch: 13 June)

Event Time Altitude Azimuth Distance (km) Brightness Sun altitude
Rises 23:41:19 0° 270° (W) 2,365 0.4 -15.2°
Reaches altitude 10° 23:43:25 10° 272° (W) 1,502 -0.6 -15.3°
Maximum altitude 23:46:47 77° 357° (N) 436 -3.6 -15.5°
Drops below altitude 10° 23:50:10 10° 86° (E) 1,506 -1.1 -15.8°
Enters shadow 23:50:21 - 86° (E) 1,579 -1.0 -15.8°
